Time,TemperatureF,DewpointF,PressureIn,WindDirection,WindDirectionDegrees,WindSpeedMPH,WindSpeedGustMPH,Humidity,HourlyPrecipIn,Conditions,Clouds,dailyrainin,SoftwareType,DateUTC
2013-05-10 00:02:00,65.0,64.0,29.93,West,275,0.0,-999.0,96,-99.99,,,-99.99,,2013-05-10 05:02:00,
2013-05-10 00:12:00,64.0,63.0,29.93,West,275,0.0,-999.0,96,-99.99,,,-99.99,,2013-05-10 05:12:00,
2013-05-10 00:22:00,64.0,63.0,29.93,West,275,0.0,-999.0,96,-99.99,,,-99.99,,2013-05-10 05:22:00,
2013-05-10 00:32:00,64.0,63.0,29.93,West,275,0.0,-999.0,96,-99.99,,,-99.99,,2013-05-10 05:32:00,
2013-05-10 00:42:00,64.0,63.0,29.93,West,275,0.0,-999.0,96,-99.99,,,-99.99,,2013-05-10 05:42:00,
2013-05-10 00:52:00,64.0,63.0,29.93,West,275,0.0,-999.0,96,-99.99,,,-99.99,,2013-05-10 05:52:00,
2013-05-10 01:01:00,64.0,63.0,29.93,West,275,0.0,-999.0,96,-99.99,,,-99.99,,2013-05-10 06:01:00,
2013-05-10 01:12:00,64.0,63.0,29.93,West,264,1.0,-999.0,96,-99.99,,,-99.99,,2013-05-10 06:12:00,
2013-05-10 01:21:00,64.0,63.0,29.93,West,264,1.0,-999.0,96,-99.99,,,-99.99,,2013-05-10 06:21:00,
2013-05-10 01:32:00,64.0,63.0,29.93,West,268,0.0,-999.0,95,-99.99,,,-99.99,,2013-05-10 06:32:00,
2013-05-10 01:42:00,64.0,63.0,29.93,West,268,0.0,-999.0,95,-99.99,,,-99.99,,2013-05-10 06:42:00,
2013-05-10 01:52:00,64.0,63.0,29.93,West,268,0.0,-999.0,95,-99.99,,,-99.99,,2013-05-10 06:52:00,
2013-05-10 02:01:00,64.0,63.0,29.93,West,268,0.0,-999.0,95,-99.99,,,-99.99,,2013-05-10 07:01:00,
2013-05-10 02:12:00,64.0,63.0,29.93,West,268,0.0,-999.0,95,-99.99,,,-99.99,,2013-05-10 07:12:00,
2013-05-10 02:22:00,63.0,62.0,29.93,West,265,0.0,-999.0,96,-99.99,,,-99.99,,2013-05-10 07:22:00,
2013-05-10 02:31:00,63.0,62.0,29.93,West,265,0.0,-999.0,96,-99.99,,,-99.99,,2013-05-10 07:31:00,
2013-05-10 02:42:00,63.0,62.0,29.93,West,265,0.0,-999.0,96,-99.99,,,-99.99,,2013-05-10 07:42:00,
2013-05-10 02:52:00,63.0,62.0,29.93,West,265,0.0,-999.0,96,-99.99,,,-99.99,,2013-05-10 07:52:00,
2013-05-10 03:02:00,63.0,62.0,29.93,West,263,0.0,-999.0,96,-99.99,,,-99.99,,2013-05-10 08:02:00,
2013-05-10 03:12:00,63.0,62.0,29.92,West,263,0.0,-999.0,96,-99.99,,,-99.99,,2013-05-10 08:12:00,
2013-05-10 03:21:00,63.0,62.0,29.92,West,263,0.0,-999.0,96,-99.99,,,-99.99,,2013-05-10 08:21:00,
2013-05-10 03:32:00,63.0,62.0,29.92,West,263,0.0,-999.0,96,-99.99,,,-99.99,,2013-05-10 08:32:00,
2013-05-10 03:42:00,63.0,62.0,29.92,West,261,0.0,-999.0,96,-99.99,,,-99.99,,2013-05-10 08:42:00,
2013-05-10 03:52:00,63.0,62.0,29.92,West,261,0.0,-999.0,96,-99.99,,,-99.99,,2013-05-10 08:52:00,
2013-05-10 04:01:00,63.0,62.0,29.92,West,270,1.0,-999.0,96,-99.99,,,-99.99,,2013-05-10 09:01:00,
2013-05-10 04:11:00,62.0,61.0,29.93,WNW,288,1.0,-999.0,96,-99.99,,,-99.99,,2013-05-10 09:11:00,
2013-05-10 04:21:00,62.0,61.0,29.93,WNW,288,1.0,-999.0,96,-99.99,,,-99.99,,2013-05-10 09:21:00,
2013-05-10 04:32:00,62.0,61.0,29.93,West,277,0.0,-999.0,96,-99.99,,,-99.99,,2013-05-10 09:32:00,
2013-05-10 04:42:00,62.0,61.0,29.93,NW,320,0.0,-999.0,96,-99.99,,,-99.99,,2013-05-10 09:42:00,
2013-05-10 04:52:00,62.0,61.0,29.93,NW,320,0.0,-999.0,96,-99.99,,,-99.99,,2013-05-10 09:52:00,
2013-05-10 05:02:00,61.0,60.0,29.93,NW,319,0.0,-999.0,96,-99.99,,,-99.99,,2013-05-10 10:02:00,
2013-05-10 05:12:00,61.0,60.0,29.93,NW,319,0.0,-999.0,96,-99.99,,,-99.99,,2013-05-10 10:12:00,
2013-05-10 05:23:00,61.0,60.0,29.93,WNW,301,0.0,-999.0,96,-99.99,,,-99.99,,2013-05-10 10:23:00,
2013-05-10 05:32:00,60.0,59.0,29.93,NW,306,0.0,-999.0,96,-99.99,,,-99.99,,2013-05-10 10:32:00,
2013-05-10 05:42:00,60.0,59.0,29.93,NW,319,0.0,-999.0,96,-99.99,,,-99.99,,2013-05-10 10:42:00,
2013-05-10 05:52:00,60.0,59.0,29.93,NW,319,0.0,-999.0,96,-99.99,,,-99.99,,2013-05-10 10:52:00,
2013-05-10 06:02:00,59.0,58.0,29.93,NNW,343,0.0,-999.0,96,-99.99,,,-99.99,,2013-05-10 11:02:00,
2013-05-10 06:12:00,59.0,58.0,29.93,NNW,343,0.0,-999.0,95,-99.99,,,-99.99,,2013-05-10 11:12:00,
2013-05-10 06:21:00,59.0,58.0,29.93,NNW,343,0.0,-999.0,95,-99.99,,,-99.99,,2013-05-10 11:21:00,
2013-05-10 06:32:00,58.0,57.0,29.93,NNW,328,0.0,-999.0,95,-99.99,,,-99.99,,2013-05-10 11:32:00,
2013-05-10 06:42:00,58.0,57.0,29.95,North,349,0.0,-999.0,95,-99.99,,,-99.99,,2013-05-10 11:42:00,
2013-05-10 06:52:00,58.0,57.0,29.95,North,349,0.0,-999.0,95,-99.99,,,-99.99,,2013-05-10 11:52:00,
2013-05-10 07:01:00,58.0,57.0,29.95,NW,326,0.0,-999.0,95,-99.99,,,-99.99,,2013-05-10 12:01:00,
2013-05-10 07:11:00,58.0,57.0,29.96,North,354,0.0,-999.0,95,-99.99,,,-99.99,,2013-05-10 12:11:00,
2013-05-10 07:21:00,58.0,57.0,29.96,North,354,0.0,-999.0,95,-99.99,,,-99.99,,2013-05-10 12:21:00,
2013-05-10 07:32:00,58.0,57.0,29.96,WNW,298,0.0,-999.0,95,-99.99,,,-99.99,,2013-05-10 12:32:00,
2013-05-10 07:42:00,58.0,57.0,29.96,WNW,298,0.0,-999.0,95,-99.99,,,-99.99,,2013-05-10 12:42:00,
2013-05-10 07:52:00,59.0,57.0,29.98,NNW,328,0.0,-999.0,94,-99.99,,,-99.99,,2013-05-10 12:52:00,
2013-05-10 08:01:00,59.0,57.0,29.98,NNW,343,0.0,-999.0,93,-99.99,,,-99.99,,2013-05-10 13:01:00,
2013-05-10 08:11:00,59.0,57.0,29.98,NNW,343,0.0,-999.0,93,-99.99,,,-99.99,,2013-05-10 13:11:00,
2013-05-10 08:21:00,59.0,56.0,30.00,WNW,289,0.0,-999.0,91,-99.99,,,-99.99,,2013-05-10 13:21:00,
2013-05-10 08:32:00,59.0,56.0,30.00,NNW,330,0.0,-999.0,91,-99.99,,,-99.99,,2013-05-10 13:32:00,
2013-05-10 08:41:00,60.0,56.0,30.00,North,356,0.0,-999.0,88,-99.99,,,-99.99,,2013-05-10 13:41:00,
2013-05-10 08:52:00,60.0,56.0,30.00,North,356,0.0,-999.0,88,-99.99,,,-99.99,,2013-05-10 13:52:00,
2013-05-10 09:02:00,60.0,56.0,30.00,North,353,0.0,-999.0,87,-99.99,,,-99.99,,2013-05-10 14:02:00,
2013-05-10 09:11:00,61.0,56.0,30.00,NNW,335,0.0,-999.0,85,-99.99,,,-99.99,,2013-05-10 14:11:00,
2013-05-10 09:21:00,61.0,56.0,30.00,NNW,335,0.0,-999.0,85,-99.99,,,-99.99,,2013-05-10 14:21:00,
2013-05-10 09:32:00,61.0,56.0,30.00,West,275,1.0,-999.0,85,-99.99,,,-99.99,,2013-05-10 14:32:00,
2013-05-10 09:41:00,61.0,56.0,30.01,WNW,282,2.0,-999.0,84,-99.99,,,-99.99,,2013-05-10 14:41:00,
2013-05-10 09:52:00,61.0,56.0,30.01,WNW,282,2.0,-999.0,84,-99.99,,,-99.99,,2013-05-10 14:52:00,
2013-05-10 10:01:00,61.0,56.0,30.02,WNW,288,2.0,-999.0,83,-99.99,,,-99.99,,2013-05-10 15:01:00,
2013-05-10 10:20:00,-999.0,-99.9,30.04,SW,234,2.0,-999.0,82,-99.99,,,-99.99,,2013-05-10 15:20:00,
2013-05-10 10:32:00,62.0,56.0,30.04,NW,305,2.0,-999.0,81,-99.99,,,-99.99,,2013-05-10 15:32:00,
2013-05-10 10:42:00,63.0,56.0,30.03,WSW,258,3.0,-999.0,79,-99.99,,,-99.99,,2013-05-10 15:42:00,
2013-05-10 10:53:00,63.0,56.0,30.03,WSW,258,3.0,-999.0,79,-99.99,,,-99.99,,2013-05-10 15:53:00,
2013-05-10 11:02:00,64.0,57.0,30.03,West,268,3.0,-999.0,77,-99.99,,,-99.99,,2013-05-10 16:02:00,
2013-05-10 11:12:00,65.0,56.0,30.02,NW,309,3.0,-999.0,74,-99.99,,,-99.99,,2013-05-10 16:12:00,
2013-05-10 11:23:00,65.0,56.0,30.02,NW,309,3.0,-999.0,74,-99.99,,,-99.99,,2013-05-10 16:23:00,
2013-05-10 11:32:00,66.0,57.0,30.02,West,263,2.0,-999.0,73,-99.99,,,-99.99,,2013-05-10 16:32:00,
2013-05-10 11:42:00,67.0,58.0,30.02,NW,305,2.0,-999.0,73,-99.99,,,-99.99,,2013-05-10 16:42:00,
2013-05-10 11:52:00,67.0,58.0,30.02,NW,305,2.0,-999.0,73,-99.99,,,-99.99,,2013-05-10 16:52:00,
2013-05-10 12:02:00,68.0,57.0,30.02,WNW,301,1.0,-999.0,69,-99.99,,,-99.99,,2013-05-10 17:02:00,
2013-05-10 12:12:00,67.0,56.0,30.01,NNW,330,1.0,-999.0,69,-99.99,,,-99.99,,2013-05-10 17:12:00,
2013-05-10 12:22:00,67.0,56.0,30.01,NNW,330,1.0,-999.0,69,-99.99,,,-99.99,,2013-05-10 17:22:00,
2013-05-10 12:32:00,68.0,57.0,30.01,West,278,2.0,-999.0,68,-99.99,,,-99.99,,2013-05-10 17:32:00,
2013-05-10 12:42:00,69.0,57.0,30.01,WNW,294,2.0,-999.0,65,-99.99,,,-99.99,,2013-05-10 17:42:00,
2013-05-10 12:52:00,69.0,57.0,30.01,WNW,294,2.0,-999.0,65,-99.99,,,-99.99,,2013-05-10 17:52:00,
2013-05-10 13:10:00,-999.0,-99.9,30.01,WNW,287,3.0,-999.0,64,-99.99,,,-99.99,,2013-05-10 18:10:00,
2013-05-10 13:22:00,70.0,56.0,30.01,West,260,2.0,-999.0,61,-99.99,,,-99.99,,2013-05-10 18:22:00,
2013-05-10 13:34:00,70.0,55.0,30.01,NW,318,1.0,-999.0,60,-99.99,,,-99.99,,2013-05-10 18:34:00,
2013-05-10 13:43:00,71.0,57.0,30.01,North,352,2.0,-999.0,62,-99.99,,,-99.99,,2013-05-10 18:43:00,
2013-05-10 13:54:00,71.0,57.0,30.01,North,352,2.0,-999.0,62,-99.99,,,-99.99,,2013-05-10 18:54:00,
2013-05-10 14:02:00,70.0,55.0,30.01,WNW,289,2.0,-999.0,58,-99.99,,,-99.99,,2013-05-10 19:02:00,
2013-05-10 14:11:00,70.0,55.0,30.01,WNW,302,2.0,-999.0,59,-99.99,,,-99.99,,2013-05-10 19:11:00,
2013-05-10 14:21:00,70.0,55.0,30.01,WNW,302,2.0,-999.0,59,-99.99,,,-99.99,,2013-05-10 19:21:00,
2013-05-10 14:32:00,70.0,56.0,30.01,NNW,336,1.0,-999.0,61,-99.99,,,-99.99,,2013-05-10 19:32:00,
2013-05-10 14:42:00,69.0,55.0,30.01,West,267,2.0,-999.0,60,-99.99,,,-99.99,,2013-05-10 19:42:00,
2013-05-10 14:52:00,69.0,55.0,30.01,West,267,2.0,-999.0,60,-99.99,,,-99.99,,2013-05-10 19:52:00,
2013-05-10 15:01:00,69.0,55.0,30.01,North,360,3.0,-999.0,62,-99.99,,,-99.99,,2013-05-10 20:01:00,
2013-05-10 15:12:00,69.0,55.0,30.01,North,360,3.0,-999.0,62,-99.99,,,-99.99,,2013-05-10 20:12:00,
2013-05-10 15:21:00,69.0,55.0,30.01,WNW,295,2.0,-999.0,60,-99.99,,,-99.99,,2013-05-10 20:21:00,
2013-05-10 15:32:00,70.0,55.0,30.01,NNW,343,1.0,-999.0,60,-99.99,,,-99.99,,2013-05-10 20:32:00,
2013-05-10 15:41:00,70.0,55.0,30.01,NNW,343,1.0,-999.0,60,-99.99,,,-99.99,,2013-05-10 20:41:00,
2013-05-10 15:52:00,70.0,54.0,30.01,NNW,333,1.0,-999.0,57,-99.99,,,-99.99,,2013-05-10 20:52:00,
2013-05-10 16:01:00,70.0,55.0,30.01,WNW,291,1.0,-999.0,58,-99.99,,,-99.99,,2013-05-10 21:01:00,
2013-05-10 16:11:00,71.0,54.0,30.00,NW,312,2.0,-999.0,54,-99.99,,,-99.99,,2013-05-10 21:11:00,
2013-05-10 16:24:00,71.0,54.0,30.00,NW,312,2.0,-999.0,54,-99.99,,,-99.99,,2013-05-10 21:24:00,
2013-05-10 16:32:00,72.0,53.0,30.00,WNW,292,2.0,-999.0,51,-99.99,,,-99.99,,2013-05-10 21:32:00,
2013-05-10 16:43:00,72.0,53.0,29.99,West,280,3.0,-999.0,52,-99.99,,,-99.99,,2013-05-10 21:43:00,
2013-05-10 16:52:00,72.0,53.0,29.99,West,280,3.0,-999.0,52,-99.99,,,-99.99,,2013-05-10 21:52:00,
2013-05-10 17:02:00,72.0,53.0,29.99,West,265,2.0,-999.0,52,-99.99,,,-99.99,,2013-05-10 22:02:00,
2013-05-10 17:12:00,72.0,54.0,29.98,NNW,329,2.0,-999.0,53,-99.99,,,-99.99,,2013-05-10 22:12:00,
2013-05-10 17:22:00,72.0,54.0,29.98,NNW,329,2.0,-999.0,53,-99.99,,,-99.99,,2013-05-10 22:22:00,
2013-05-10 17:32:00,71.0,54.0,29.99,NW,306,2.0,-999.0,56,-99.99,,,-99.99,,2013-05-10 22:32:00,
2013-05-10 17:42:00,71.0,54.0,29.99,WNW,288,1.0,-999.0,56,-99.99,,,-99.99,,2013-05-10 22:42:00,
2013-05-10 17:52:00,71.0,54.0,29.99,WNW,288,1.0,-999.0,56,-99.99,,,-99.99,,2013-05-10 22:52:00,
2013-05-10 18:02:00,71.0,52.0,29.99,WNW,284,2.0,-999.0,52,-99.99,,,-99.99,,2013-05-10 23:02:00,
2013-05-10 18:12:00,71.0,52.0,29.99,WNW,284,2.0,-999.0,52,-99.99,,,-99.99,,2013-05-10 23:12:00,
2013-05-10 18:22:00,71.0,54.0,29.99,NW,318,1.0,-999.0,54,-99.99,,,-99.99,,2013-05-10 23:22:00,
2013-05-10 18:32:00,71.0,54.0,29.99,North,353,2.0,-999.0,55,-99.99,,,-99.99,,2013-05-10 23:32:00,
2013-05-10 18:41:00,69.0,54.0,29.99,NNW,336,1.0,-999.0,59,-99.99,,,-99.99,,2013-05-10 23:41:00,
2013-05-10 18:52:00,69.0,54.0,29.99,NNW,336,1.0,-999.0,59,-99.99,,,-99.99,,2013-05-10 23:52:00,
2013-05-10 19:01:00,69.0,55.0,29.99,NNW,340,0.0,-999.0,60,-99.99,,,-99.99,,2013-05-11 00:01:00,
2013-05-10 19:11:00,69.0,54.0,30.00,NW,319,0.0,-999.0,58,-99.99,,,-99.99,,2013-05-11 00:11:00,
2013-05-10 19:21:00,69.0,54.0,30.00,NW,319,0.0,-999.0,58,-99.99,,,-99.99,,2013-05-11 00:21:00,
2013-05-10 19:32:00,68.0,54.0,30.00,NNW,332,1.0,-999.0,60,-99.99,,,-99.99,,2013-05-11 00:32:00,
2013-05-10 19:42:00,68.0,53.0,30.01,NNW,328,3.0,-999.0,58,-99.99,,,-99.99,,2013-05-11 00:42:00,
2013-05-10 19:52:00,68.0,53.0,30.01,NNW,328,3.0,-999.0,58,-99.99,,,-99.99,,2013-05-11 00:52:00,
2013-05-10 20:01:00,67.0,52.0,30.01,NNW,333,3.0,-999.0,59,-99.99,,,-99.99,,2013-05-11 01:01:00,
2013-05-10 20:11:00,65.0,51.0,30.03,NNW,346,1.0,-999.0,61,-99.99,,,-99.99,,2013-05-11 01:11:00,
2013-05-10 20:21:00,65.0,51.0,30.03,NNW,346,1.0,-999.0,61,-99.99,,,-99.99,,2013-05-11 01:21:00,
2013-05-10 20:31:00,65.0,52.0,30.03,NNW,342,1.0,-999.0,63,-99.99,,,-99.99,,2013-05-11 01:31:00,
2013-05-10 20:42:00,63.0,51.0,30.04,NW,322,1.0,-999.0,64,-99.99,,,-99.99,,2013-05-11 01:42:00,
2013-05-10 20:52:00,63.0,51.0,30.04,NW,322,1.0,-999.0,64,-99.99,,,-99.99,,2013-05-11 01:52:00,
2013-05-10 21:02:00,63.0,51.0,30.04,NNW,332,1.0,-999.0,64,-99.99,,,-99.99,,2013-05-11 02:02:00,
2013-05-10 21:11:00,62.0,50.0,30.04,NNW,336,0.0,-999.0,65,-99.99,,,-99.99,,2013-05-11 02:11:00,
2013-05-10 21:21:00,62.0,50.0,30.04,NNW,336,0.0,-999.0,65,-99.99,,,-99.99,,2013-05-11 02:21:00,
2013-05-10 21:32:00,62.0,51.0,30.04,NW,323,0.0,-999.0,66,-99.99,,,-99.99,,2013-05-11 02:32:00,
2013-05-10 21:42:00,61.0,50.0,30.05,NW,323,0.0,-999.0,68,-99.99,,,-99.99,,2013-05-11 02:42:00,
2013-05-10 21:52:00,61.0,50.0,30.05,NW,323,0.0,-999.0,68,-99.99,,,-99.99,,2013-05-11 02:52:00,
2013-05-10 22:01:00,61.0,51.0,30.05,NW,323,0.0,-999.0,69,-99.99,,,-99.99,,2013-05-11 03:01:00,
2013-05-10 22:11:00,60.0,51.0,30.06,NW,323,0.0,-999.0,71,-99.99,,,-99.99,,2013-05-11 03:11:00,
2013-05-10 22:21:00,60.0,51.0,30.06,NW,323,0.0,-999.0,71,-99.99,,,-99.99,,2013-05-11 03:21:00,
2013-05-10 22:32:00,60.0,51.0,30.06,NW,323,0.0,-999.0,73,-99.99,,,-99.99,,2013-05-11 03:32:00,
2013-05-10 22:42:00,59.0,51.0,30.07,NW,323,0.0,-999.0,75,-99.99,,,-99.99,,2013-05-11 03:42:00,
2013-05-10 22:53:00,59.0,51.0,30.07,NW,323,0.0,-999.0,75,-99.99,,,-99.99,,2013-05-11 03:53:00,
2013-05-10 23:02:00,58.0,50.0,30.07,NW,323,0.0,-999.0,76,-99.99,,,-99.99,,2013-05-11 04:02:00,
2013-05-10 23:12:00,58.0,51.0,30.07,NW,323,0.0,-999.0,77,-99.99,,,-99.99,,2013-05-11 04:12:00,
2013-05-10 23:23:00,58.0,51.0,30.07,NW,323,0.0,-999.0,77,-99.99,,,-99.99,,2013-05-11 04:23:00,
2013-05-10 23:33:00,58.0,51.0,30.07,NW,323,0.0,-999.0,77,-99.99,,,-99.99,,2013-05-11 04:33:00,
2013-05-10 23:43:00,57.0,51.0,30.08,NW,323,0.0,-999.0,81,-99.99,,,-99.99,,2013-05-11 04:43:00,
2013-05-10 23:52:00,57.0,51.0,30.08,NW,323,0.0,-999.0,81,-99.99,,,-99.99,,2013-05-11 04:52:00,